Temp
20 23 20 18 17 17 18 19 19 15 13 13 14 13 10 9 10 9 9 8 7 6 5 5 4 3 3 2 1 1 0 -0 -1 -1 -1 -2 -2 -3 -2 -2 -2 -2 -2 -2
22 19 17 16 17 17 18 19 18 14 13 13 14 13 12 10 9 9 9 7 7 6 5 4 3 3 2 2 1 1 0 -0 -1 -1 -2 -2 -2 -2 -3 -2 -3 -3 -2 -3
21 17 15 16 17 18 18 17 17 16 13 13 13 13 11 11 9 10 9 7 7 5 5 4 3 2 2 1 0 0 -0 -0 -1 -2 -2 -2 -3 -3 -3 -3 -3 -3 -3 -3
18 16 16 17 17 16 19 14 14 14 13 17 13 17 12 12 11 10 9 7 6 5 4 3 3 2 2 1 0 -0 -0 -1 -1 -2 -2 -3 -3 -3 -4 -4 -4 -4 -4 -4
16 16 16 17 14 14 15 13 14 14 15 15 14 14 11 11 11 10 9 7 6 5 4 3 2 1 1 0 -0 -0 -0 -1 -1 -2 -2 -3 -3 -3 -3 -4 -4 -4 -3 -3
15 13 14 14 14 13 12 14 14 14 16 17 16 15 14 13 9 9 7 6 5 4 4 3 2 1 0 0 -0 -0 -1 -1 -1 -1 -1 -2 -2 -3 -3 -4 -4 -4 -3 -3
17 15 14 13 15 14 16 17 19 19 18 19 14 13 14 10 8 7 6 6 5 4 3 2 1 0 -0 0 -0 -0 -1 -1 -1 -1 -1 -2 -2 -2 -3 -4 -4 -4 -3 -3
21 19 14 14 13 14 15 15 18 16 19 18 13 15 12 9 8 8 6 5 5 4 3 2 1 0 0 -0 -0 -0 -1 -1 -1 -1 -1 -1 -2 -2 -2 -2 -4 -4 -4 -3
21 17 12 12 12 12 16 16 13 15 15 15 18 12 10 9 9 8 7 6 4 3 2 2 1 0 0 -0 -0 -1 -1 -1 -1 -1 -1 -1 -2 -3 -3 -2 -2 -3 -3 -3
18 18 14 11 11 12 13 12 15 16 14 15 20 18 15 9 9 8 7 6 4 3 2 2 1 1 1 -0 -1 -1 -0 -1 -1 -1 -1 -1 -2 -4 -3 -2 -2 -3 -3 -3
16 17 14 13 14 15 14 15 13 13 14 15 16 16 13 10 8 7 6 5 4 3 2 1 1 1 1 -0 -1 -0 -0 -1 -1 -1 -1 -1 -3 -4 -3 -2 -2 -2 -3 -3
15 17 19 16 11 11 12 14 13 14 14 13 11 13 11 9 7 5 5 5 4 3 2 1 1 1 0 0 -0 -0 -0 -1 -1 -1 -1 -2 -4 -3 -4 -2 -2 -2 -2 -3
15 18 19 14 11 11 11 12 11 11 11 11 12 15 10 8 7 7 5 4 4 3 2 1 1 -0 -1 -1 -0 -1 -1 -1 -1 -1 -1 -2 -3 -2 -3 -3 -3 -2 -2 -2
10 16 17 19 16 14 12 10 10 12 12 13 13 15 10 10 9 7 5 4 3 2 1 1 0 -2 -1 -1 -1 -1 -1 -2 -2 -1 -1 -2 -4 -2 -2 -3 -4 -3 -2 -2
12 16 16 17 13 12 13 13 9 8 13 11 15 13 13 11 8 6 4 4 3 2 1 0 -1 -2 -2 -1 -1 -1 -1 -2 -2 -1 -1 -2 -3 -2 -2 -2 -3 -3 -2 -2
12 16 14 16 13 12 12 13 12 11 10 11 11 11 9 7 6 5 5 4 3 2 1 -0 -1 -3 -3 -1 -2 -2 -2 -2 -2 -1 -1 -2 -2 -3 -3 -2 -2 -3 -3 -3
13 14 15 18 13 12 15 15 13 12 12 12 12 12 8 7 6 6 5 3 2 1 0 -0 -1 -3 -3 -2 -2 -2 -2 -2 -2 -2 -2 -2 -2 -2 -3 -3 -2 -2 -3 -3
13 14 12 14 15 16 13 11 13 13 13 12 11 9 8 7 6 4 3 2 2 0 -0 -1 -2 -2 -3 -2 -3 -2 -2 -2 -2 -2 -2 -2 -2 -2 -3 -4 -3 -2 -3 -3
11 13 9 13 18 20 12 10 11 11 15 14 12 11 7 5 4 5 3 1 0 -1 -1 -1 -2 -3 -3 -3 -2 -3 -2 -2 -2 -2 -2 -2 -2 -2 -3 -3 -3 -2 -2 -3
10 11 12 11 12 18 17 11 10 11 14 12 11 10 7 5 8 7 2 1 -0 -1 -1 -2 -3 -3 -3 -2 -0 -2 -2 -2 -2 -2 -1 -2 -2 -2 -2 -3 -3 -2 -2 -2
10 9 8 13 13 18 13 9 9 15 16 11 10 9 7 6 7 3 1 -0 -1 -2 -2 -3 -3 -4 -4 -0 -0 -2 -0 -1 -1 -1 -1 -1 -1 -1 -1 -2 -3 -2 -2 -2
11 9 9 13 11 15 9 7 12 12 10 9 9 7 6 5 2 1 0 -1 -2 -2 -2 -3 -4 -4 -3 -2 -1 -1 1 0 -0 -1 -1 -1 -1 -1 -0 -1 -2 -2 -2 -2
14 15 14 14 18 12 9 10 9 9 9 8 8 6 5 3 2 1 0 -1 -1 -2 -3 -3 -4 -3 -3 -1 -0 1 1 0 -0 0 0 -0 -0 0 1 0 -1 -1 -1 -2
13 10 12 13 16 12 9 8 8 8 8 7 6 5 4 3 2 1 -0 -1 -1 -2 -3 -4 -4 -3 -3 -3 -0 2 2 2 -1 -0 1 1 0 1 1 1 1 -0 0 -0
14 11 14 14 15 9 10 9 7 7 7 6 5 4 4 3 2 1 -0 -1 -2 -2 -4 -4 -4 -4 -4 -3 -1 2 2 2 -0 -0 1 2 1 0 0 -0 0 0 0 -0
11 15 15 19 19 17 15 11 7 7 7 7 5 3 3 2 1 0 -0 -1 -2 -2 -4 -4 -4 -4 -3 -4 -2 1 1 2 0 1 1 2 2 1 0 -0 -1 1 0 0
Height
1534 1529 1539 1545 1544 1542 1538 1535 1536 1551 1558 1557 1552 1555 1567 1573 1572 1571 1570 1567 1565 1562 1560 1558 1552 1548 1544 1539 1536 1531 1526 1521 1515 1510 1506 1501 1496 1490 1486 1481 1476 1470 1463 1458
1532 1542 1548 1548 1545 1543 1539 1535 1536 1553 1558 1559 1551 1555 1563 1568 1570 1571 1568 1567 1564 1562 1557 1554 1551 1547 1543 1539 1535 1531 1526 1521 1516 1512 1507 1502 1496 1491 1485 1480 1473 1468 1462 1456
1532 1548 1550 1549 1544 1541 1542 1542 1542 1548 1556 1555 1553 1550 1560 1565 1568 1568 1567 1566 1564 1562 1558 1554 1551 1547 1543 1538 1534 1530 1525 1521 1517 1511 1506 1501 1495 1489 1483 1476 1470 1465 1460 1453
1545 1551 1549 1547 1547 1549 1538 1553 1552 1550 1553 1535 1551 1535 1551 1556 1562 1563 1564 1564 1562 1559 1557 1554 1551 1546 1542 1538 1534 1530 1526 1521 1516 1511 1505 1500 1493 1487 1482 1476 1469 1464 1458 1451
1551 1550 1549 1546 1553 1553 1550 1554 1551 1548 1546 1544 1546 1544 1552 1558 1556 1561 1563 1563 1563 1560 1557 1553 1549 1547 1543 1538 1533 1530 1525 1521 1516 1510 1506 1499 1493 1488 1481 1475 1469 1463 1457 1450
1551 1556 1556 1557 1556 1556 1557 1550 1550 1547 1541 1535 1535 1541 1541 1546 1560 1562 1563 1563 1562 1559 1556 1553 1549 1546 1542 1538 1533 1529 1525 1520 1516 1510 1505 1500 1494 1488 1481 1474 1468 1461 1456 1449
1549 1554 1558 1558 1552 1553 1548 1540 1528 1529 1529 1521 1542 1544 1538 1556 1563 1564 1563 1562 1561 1558 1555 1552 1549 1544 1541 1537 1533 1529 1524 1520 1516 1510 1505 1499 1494 1488 1482 1475 1468 1460 1454 1448
1533 1543 1556 1559 1559 1556 1551 1549 1542 1551 1528 1525 1544 1534 1546 1556 1561 1562 1563 1562 1560 1557 1554 1551 1548 1544 1540 1536 1533 1529 1525 1520 1515 1510 1505 1499 1494 1487 1482 1476 1469 1462 1455 1448
1533 1546 1562 1563 1561 1562 1548 1547 1559 1551 1543 1543 1515 1541 1552 1557 1557 1559 1560 1561 1559 1557 1553 1550 1547 1543 1540 1536 1532 1529 1525 1520 1515 1510 1505 1500 1494 1486 1480 1476 1470 1463 1456 1448
1542 1542 1557 1563 1564 1562 1556 1560 1552 1545 1555 1546 1507 1512 1526 1554 1555 1558 1559 1559 1558 1556 1552 1550 1547 1544 1540 1536 1532 1529 1525 1520 1515 1510 1506 1501 1494 1486 1479 1475 1471 1464 1457 1449
1547 1544 1558 1560 1555 1552 1554 1549 1556 1556 1553 1547 1535 1522 1540 1550 1557 1559 1558 1556 1556 1554 1552 1549 1547 1544 1540 1537 1532 1529 1525 1520 1515 1510 1506 1501 1493 1486 1480 1477 1472 1466 1459 1451
1549 1543 1535 1548 1561 1563 1561 1554 1555 1552 1552 1553 1560 1542 1548 1554 1558 1560 1557 1556 1555 1552 1551 1549 1547 1544 1541 1537 1534 1530 1525 1521 1516 1511 1506 1501 1493 1488 1482 1478 1473 1468 1462 1455
1550 1540 1534 1552 1562 1562 1559 1558 1561 1562 1563 1556 1556 1529 1550 1553 1555 1555 1556 1556 1555 1555 1552 1550 1547 1543 1540 1537 1534 1530 1526 1521 1515 1511 1506 1500 1493 1490 1485 1479 1473 1470 1464 1458
1555 1544 1539 1535 1540 1547 1554 1559 1561 1556 1556 1546 1543 1530 1546 1546 1550 1552 1554 1556 1555 1552 1551 1550 1547 1543 1540 1538 1534 1530 1526 1521 1516 1512 1507 1501 1494 1491 1486 1481 1474 1470 1466 1461
1553 1543 1541 1537 1546 1549 1547 1548 1560 1561 1545 1551 1530 1535 1535 1541 1548 1551 1553 1553 1552 1552 1551 1549 1547 1544 1541 1538 1534 1531 1526 1521 1517 1513 1508 1503 1497 1493 1488 1483 1477 1472 1468 1464
1551 1541 1545 1535 1546 1549 1548 1544 1546 1550 1551 1547 1541 1537 1541 1545 1548 1550 1549 1551 1551 1552 1551 1549 1547 1543 1541 1538 1534 1530 1526 1522 1517 1514 1509 1504 1499 1494 1489 1485 1480 1475 1470 1466
1547 1544 1543 1527 1544 1545 1535 1527 1536 1536 1538 1537 1534 1532 1540 1543 1546 1546 1548 1551 1552 1550 1549 1548 1546 1542 1539 1538 1535 1531 1527 1523 1519 1515 1511 1506 1501 1497 1491 1486 1483 1478 1473 1468
1543 1544 1549 1540 1536 1534 1526 1531 1527 1530 1528 1532 1532 1536 1538 1541 1543 1546 1548 1550 1550 1549 1548 1545 1544 1543 1540 1538 1533 1531 1528 1524 1520 1516 1512 1507 1502 1498 1493 1487 1484 1481 1476 1471
1546 1545 1554 1545 1524 1506 1526 1530 1530 1529 1518 1520 1525 1531 1537 1541 1542 1543 1546 1546 1546 1546 1545 1545 1541 1538 1535 1535 1531 1531 1529 1526 1522 1517 1512 1508 1503 1500 1495 1489 1485 1483 1479 1474
1550 1548 1548 1548 1545 1521 1509 1523 1526 1527 1519 1518 1522 1527 1534 1540 1534 1536 1542 1543 1543 1543 1543 1542 1540 1538 1536 1534 1531 1530 1528 1526 1522 1518 1514 1510 1506 1501 1497 1493 1489 1486 1482 1478
1546 1550 1552 1539 1537 1510 1515 1522 1526 1518 1514 1517 1521 1525 1531 1535 1534 1537 1539 1541 1540 1540 1541 1539 1538 1537 1535 1531 1529 1528 1526 1525 1522 1519 1516 1512 1509 1504 1499 1495 1492 1488 1484 1480
1529 1540 1541 1534 1541 1521 1517 1525 1520 1511 1514 1516 1520 1523 1527 1531 1533 1535 1537 1538 1538 1539 1538 1538 1536 1536 1534 1532 1530 1529 1526 1525 1523 1521 1518 1514 1510 1506 1502 1498 1494 1490 1486 1482
1517 1508 1512 1513 1501 1503 1507 1506 1508 1509 1511 1515 1518 1522 1526 1529 1532 1533 1535 1536 1536 1537 1536 1536 1535 1535 1534 1532 1530 1528 1527 1525 1524 1522 1519 1515 1512 1508 1504 1500 1496 1492 1488 1484
1507 1509 1510 1508 1495 1500 1502 1505 1506 1508 1509 1513 1516 1519 1523 1526 1529 1531 1532 1533 1534 1534 1534 1533 1533 1534 1533 1531 1529 1527 1525 1524 1523 1522 1519 1516 1512 1509 1506 1502 1498 1495 1491 1486
1498 1504 1500 1499 1495 1499 1498 1498 1501 1504 1507 1510 1514 1517 1521 1524 1527 1528 1530 1531 1532 1532 1531 1531 1531 1531 1531 1530 1528 1526 1525 1523 1523 1521 1519 1516 1513 1510 1507 1504 1501 1497 1494 1489
1489 1486 1489 1482 1478 1482 1484 1486 1493 1498 1501 1505 1510 1514 1518 1521 1524 1526 1527 1528 1528 1529 1528 1528 1529 1530 1529 1528 1527 1526 1525 1523 1522 1520 1518 1517 1515 1512 1510 1506 1503 1499 1496 1492
Wind_Speed
2 1 6 7 6 6 5 4 2 2 2 6 8 5 7 5 3 9 17 16 17 20 20 19 19 20 20 20 20 21 23 23 22 22 23 24 27 29 26 23 25 25 25 26
4 6 3 2 5 3 3 4 1 3 3 5 4 7 8 7 3 7 15 16 19 22 20 19 20 20 19 21 20 21 22 24 23 22 23 23 26 25 23 23 26 24 27 29
6 4 1 3 5 4 1 6 6 5 3 8 6 10 8 8 5 5 13 12 17 22 22 20 20 20 19 21 21 21 22 23 21 23 21 23 22 25 26 32 30 27 29 28
6 3 1 1 1 8 5 5 5 5 5 3 4 3 9 7 5 6 13 14 16 19 18 18 20 21 20 20 19 20 21 23 21 22 23 24 24 28 27 32 31 31 29 25
5 3 7 3 4 6 5 3 4 4 7 6 7 5 7 6 5 9 14 13 16 19 17 17 18 19 18 18 19 19 20 22 22 22 22 25 27 25 25 30 29 30 29 27
6 3 4 6 2 2 2 3 2 3 4 5 6 2 7 3 2 9 13 13 16 19 17 16 16 16 17 18 18 19 21 22 22 23 23 23 26 28 28 31 35 30 32 30
5 4 3 5 5 5 8 8 3 4 5 4 5 4 6 8 4 8 11 13 16 18 17 17 17 18 17 18 19 19 21 22 23 23 23 24 25 25 26 29 34 33 33 35
3 5 4 6 4 4 5 5 3 5 5 7 4 3 5 7 1 7 7 9 14 16 15 15 16 17 17 17 18 19 21 22 23 23 24 24 25 26 25 27 32 32 33 36
3 4 4 5 5 3 4 2 2 5 3 5 3 6 5 5 3 8 8 9 13 16 15 14 15 16 17 17 18 19 20 21 22 23 24 24 24 24 22 25 28 32 32 36
3 2 1 3 3 3 3 1 3 3 5 6 5 3 3 6 4 7 9 10 14 16 14 14 15 16 16 17 17 17 19 20 22 22 23 24 24 28 21 24 26 29 31 34
2 2 5 3 3 3 2 2 1 3 2 3 6 3 6 7 4 6 8 9 12 14 14 13 14 15 15 16 16 17 19 20 21 22 23 23 25 28 23 23 25 27 30 32
2 3 2 4 3 2 3 2 3 2 1 2 3 3 4 6 4 3 6 7 11 11 12 11 13 14 15 16 17 17 19 20 21 21 22 23 24 26 26 22 23 26 27 30
2 3 3 4 3 3 5 4 1 2 0 6 2 2 5 3 4 3 5 6 10 12 12 11 12 14 14 16 16 17 19 19 20 21 22 23 23 24 24 23 20 25 25 26
1 3 5 4 3 1 3 6 8 6 3 2 10 11 7 5 2 3 3 5 9 10 10 11 12 14 15 15 16 17 18 19 20 20 21 22 22 21 23 22 22 23 24 23
3 4 3 4 3 4 7 7 10 11 10 5 1 11 13 6 1 1 2 4 8 9 9 10 12 14 14 16 16 17 18 18 19 19 20 21 22 19 20 22 24 20 22 24
4 1 2 4 3 6 10 11 11 14 14 16 17 16 5 5 2 2 2 3 7 9 9 9 11 13 13 16 16 17 17 18 18 19 19 20 20 20 19 20 22 21 20 21
6 3 2 2 2 5 9 13 14 8 8 7 7 3 8 4 4 4 3 2 6 7 7 7 10 11 11 15 15 16 17 17 18 18 19 19 19 20 19 17 20 20 21 22
5 4 1 3 2 3 4 3 3 14 8 13 9 5 6 3 3 4 4 1 4 6 5 5 7 10 10 13 12 14 15 16 17 18 18 19 19 18 19 18 17 19 19 19
3 3 1 2 4 6 3 5 5 6 2 13 14 10 8 5 3 6 8 2 2 4 4 4 6 7 8 10 10 12 13 15 16 18 19 19 19 18 17 21 19 19 18 18
1 1 2 2 3 3 4 8 5 4 3 10 14 13 13 9 4 6 10 3 1 3 2 4 6 7 9 9 10 10 11 13 16 18 19 18 19 18 17 17 17 17 17 18
4 3 5 6 4 6 6 13 9 2 2 14 14 15 15 8 1 11 7 3 1 1 2 3 6 5 6 8 7 9 9 12 14 16 16 17 18 18 18 16 15 17 17 16
8 8 5 4 3 6 17 10 6 5 10 14 14 15 16 9 9 8 6 3 2 1 2 2 3 4 5 8 7 7 7 10 13 14 15 16 16 18 18 18 16 16 16 17
5 4 4 8 3 3 30 2 9 10 14 15 16 15 15 13 11 9 6 4 3 2 3 2 2 2 4 7 6 5 6 10 12 13 13 14 15 15 18 19 18 19 20 17
7 4 2 1 6 11 20 12 11 12 13 15 15 17 16 15 12 10 7 5 4 3 3 4 3 2 4 6 4 4 4 6 9 10 12 12 13 15 16 19 20 19 23 22
2 14 7 6 7 3 13 25 18 17 16 18 16 17 17 15 13 10 7 6 5 4 3 5 4 3 4 4 4 2 3 4 7 7 10 12 12 13 14 15 19 21 22 23
13 8 7 5 9 3 4 24 26 25 24 22 22 20 17 15 14 11 8 6 6 4 5 5 5 5 4 4 4 3 2 2 5 5 6 10 12 13 13 13 12 16 17 20
Wind_Direction
33 49 52 29 352 331 312 307 325 95 139 257 244 226 192 200 287 354 350 351 350 352 349 350 355 356 354 356 353 354 352 349 350 348 345 342 339 338 343 340 330 324 333 329
182 74 53 349 23 330 282 294 63 111 169 245 234 227 189 213 264 345 350 346 348 348 353 354 354 356 355 354 353 352 352 353 352 346 341 340 339 339 338 333 336 332 333 329
31 54 72 275 16 315 31 344 334 308 172 245 269 235 189 217 220 309 353 353 353 351 349 352 352 355 355 355 353 352 352 351 349 345 343 338 339 343 344 340 343 344 333 332
67 66 329 261 58 342 285 4 291 250 232 338 205 330 184 167 195 10 355 358 352 351 350 350 351 354 353 353 352 352 352 349 349 345 345 341 336 337 337 341 351 341 344 346
83 45 13 24 5 333 11 332 294 243 239 302 182 258 110 170 200 355 358 355 351 351 352 352 353 350 348 351 352 352 352 350 352 348 345 343 342 337 335 341 346 351 355 353
89 84 32 359 322 354 343 255 210 234 260 239 108 286 137 147 27 352 351 348 352 351 352 351 350 348 350 351 353 354 353 352 351 350 348 347 345 342 339 341 346 348 352 351
155 68 100 0 275 205 252 276 265 226 216 351 118 253 52 126 65 3 344 346 349 352 350 349 348 350 351 350 353 355 353 352 352 351 350 350 347 346 343 343 346 352 348 344
251 188 356 9 24 321 354 334 0 299 323 325 144 276 102 128 89 6 346 344 347 351 351 348 345 347 351 350 351 352 353 352 352 352 352 351 349 346 347 346 346 352 348 346
285 129 117 56 25 314 43 352 18 279 219 273 199 119 150 167 259 4 348 351 352 350 349 348 348 349 351 350 350 351 350 351 352 352 352 352 350 345 345 351 348 350 351 351
66 212 149 113 264 74 338 50 244 195 324 314 304 305 57 181 347 357 354 348 351 348 349 349 349 350 350 349 348 349 351 350 349 350 352 351 347 356 4 357 352 350 356 357
305 256 121 201 208 8 179 192 207 282 296 303 310 83 53 104 25 352 348 342 350 348 346 347 348 349 349 349 351 350 350 350 350 351 351 350 346 354 8 356 355 356 360 1
62 311 273 46 100 13 305 297 291 279 153 266 273 305 112 103 35 344 324 338 345 344 344 347 347 346 353 351 352 351 350 349 350 351 352 351 354 357 359 357 359 1 2 8
126 192 254 181 188 194 249 179 173 116 114 233 293 2 139 153 296 333 311 335 344 348 346 346 347 345 355 349 351 350 349 349 350 353 354 350 7 359 359 360 360 4 6 8
258 278 265 302 7 54 203 200 206 214 240 282 245 290 162 206 321 300 300 341 349 346 345 342 346 347 356 352 350 349 349 350 351 355 355 353 6 359 1 0 6 10 10 12
254 272 280 269 263 238 261 236 198 214 241 245 7 298 315 0 116 280 296 333 346 349 349 347 346 345 354 351 348 350 349 352 352 354 355 356 3 358 4 6 5 11 10 15
188 260 292 267 191 246 261 249 232 229 248 265 274 285 96 120 132 234 260 330 345 349 344 345 344 344 351 348 349 347 349 351 356 356 356 356 1 1 3 7 7 9 10 16
181 216 251 273 168 282 263 239 208 215 211 224 251 50 159 184 208 241 237 327 342 339 341 338 341 342 348 345 345 347 348 350 358 356 357 358 359 3 0 8 6 10 9 14
183 186 172 284 247 260 89 54 288 217 241 220 243 187 209 219 191 213 208 274 327 330 335 324 337 338 342 341 343 348 349 354 358 357 358 359 1 5 2 10 10 7 9 12
306 152 208 262 258 303 181 201 179 187 293 216 223 214 198 176 202 217 182 207 312 318 313 331 324 322 333 341 343 353 356 355 358 1 2 1 3 3 6 3 16 5 5 7
150 299 235 170 251 258 77 147 146 150 245 172 187 188 181 172 229 114 174 195 273 304 300 308 311 331 350 340 14 4 2 359 0 3 4 2 6 5 7 1 15 5 7 7
166 188 205 214 260 276 115 148 147 216 80 166 177 176 173 187 54 135 155 167 260 277 289 298 307 337 348 346 17 13 18 3 5 3 5 4 7 9 8 9 8 5 7 10
173 157 190 192 219 261 150 135 204 124 137 161 171 173 172 172 153 153 161 176 216 236 260 270 296 327 340 337 3 4 24 20 9 7 6 7 8 12 11 11 12 6 8 7
209 212 184 205 218 94 181 36 170 161 164 173 173 173 169 170 173 173 171 184 202 218 234 228 271 310 323 331 353 11 24 29 9 5 10 11 13 20 22 19 17 13 15 14
218 170 228 309 176 199 194 201 190 177 174 177 176 169 168 169 175 175 175 185 194 216 223 214 229 267 302 315 340 357 32 50 11 3 10 12 17 25 25 28 28 23 22 22
105 155 192 251 229 181 220 209 198 182 176 171 173 172 167 171 176 180 178 183 198 214 222 210 219 244 285 305 312 331 15 44 16 12 15 14 20 21 23 22 27 27 25 25
186 178 185 219 184 194 163 199 195 187 184 182 176 169 171 179 181 184 180 185 192 213 227 212 218 234 267 281 294 313 353 9 27 17 18 22 21 19 20 19 18 23 27 29